EW5141 Weather Reports


Display with metric or nautical units.
time (UTC)temp
F
wind
direction
speed
MPH
gust
MPH
rain 1hr
in
rain 24hr
in
rain mn
in
humidity
%
barometer
mb
20260504011100 52 210 2.0 6.0 0.00 0.00 0.00 52 1013.2
20260504010559 52 252 3.0 7.0 0.00 0.00 0.00 52 1013.2
20260504010100 52 227 3.0 8.0 0.00 0.00 0.00 52 1013.2
20260504005559 52 225 3.0 8.0 0.00 0.00 0.00 52 1013.2
20260504005059 52 240 3.0 7.0 0.00 0.00 0.00 52 1013.2
20260504004638 52 237 3.0 8.0 0.00 0.00 0.00 52 1013.2
20260504004058 52 221 4.0 8.0 0.00 0.00 0.00 51 1013.2
20260504003558 52 249 3.0 7.0 0.00 0.00 0.00 51 1013.2
20260504003101 53 252 3.0 7.0 0.00 0.00 0.00 51 1013.2
20260504002558 53 244 3.0 8.0 0.00 0.00 0.00 51 1013.2
20260504002058 53 231 4.0 8.0 0.00 0.00 0.00 50 1013.1
20260504001622 53 222 2.0 8.0 0.00 0.00 0.00 50 1013.1
20260504001100 53 235 3.0 8.0 0.00 0.00 0.00 49 1013.1
20260504000556 53 247 3.0 7.0 0.00 0.00 0.00 49 1013.2
20260504000108 54 244 2.0 8.0 0.00 0.00 0.00 49 1013.2
20260503235656 54 240 3.0 8.0 0.00 0.00 0.00 49 1013.2
20260503235055 54 237 2.0 8.0 0.00 0.00 0.00 49 1013.3
20260503234601 54 244 2.0 8.0 0.00 0.00 0.00 48 1013.3
20260503234055 54 238 3.0 11.0 0.00 0.00 0.00 48 1013.4
20260503233553 54 233 5.0 12.0 0.00 0.00 0.00 48 1013.4
20260503233100 54 240 4.0 12.0 0.00 0.00 0.00 48 1013.4
20260503232553 55 240 3.0 12.0 0.00 0.00 0.00 48 1013.5
20260503232052 55 236 5.0 12.0 0.00 0.00 0.00 47 1013.6
20260503231552 55 254 3.0 12.0 0.00 0.00 0.00 47 1013.5
20260503231052 55 251 5.0 12.0 0.00 0.00 0.00 46 1013.6
20260503230552 55 240 6.0 15.0 0.00 0.00 0.00 47 1013.6
20260503230111 55 231 8.0 21.0 0.00 0.00 0.00 45 1013.6
20260503225551 55 247 8.0 21.0 0.00 0.00 0.00 45 1013.7
20260503225049 55 248 6.0 18.0 0.00 0.00 0.00 46 1013.7
20260503224551 55 271 7.0 17.0 0.00 0.00 0.00 46 1013.8
20260503224049 56 256 6.0 17.0 0.00 0.00 0.00 47 1013.8
20260503223549 56 219 5.0 13.0 0.00 0.00 0.00 48 1013.9
20260503223048 56 259 5.0 13.0 0.00 0.00 0.00 48 1013.9
20260503222548 56 254 4.0 14.0 0.00 0.00 0.00 47 1014.0
20260503222048 56 256 6.0 17.0 0.00 0.00 0.00 46 1014.0
20260503221549 56 258 8.0 17.0 0.00 0.00 0.00 45 1013.9
20260503221047 56 233 7.0 13.0 0.00 0.00 0.00 46 1014.0
20260503220547 56 234 8.0 14.0 0.00 0.00 0.00 46 1013.9
20260503220050 56 227 8.0 14.0 0.00 0.00 0.00 46 1014.0
20260503215546 57 254 6.0 14.0 0.00 0.00 0.00 46 1013.9
20260503215047 57 246 7.0 15.0 0.00 0.00 0.00 46 1014.0
20260503214554 57 216 6.0 15.0 0.00 0.00 0.00 46 1013.9
20260503214045 57 257 6.0 12.0 0.00 0.00 0.00 46 1014.0
20260503213547 57 240 5.0 13.0 0.00 0.00 0.00 47 1014.1
20260503213045 57 257 6.0 15.0 0.00 0.00 0.00 46 1014.1
20260503212548 57 244 7.0 15.0 0.00 0.00 0.00 46 1014.1
20260503212046 57 221 6.0 17.0 0.00 0.00 0.00 47 1014.1
20260503211547 56 259 8.0 18.0 0.00 0.00 0.00 46 1014.0
20260503211044 57 239 8.0 18.0 0.00 0.00 0.00 43 1014.0
20260503210543 57 239 8.0 16.0 0.00 0.00 0.00 44 1014.0
20260503210045 57 232 9.0 16.0 0.00 0.00 0.00 45 1014.1
20260503205543 57 266 7.0 16.0 0.00 0.00 0.00 45 1014.1
20260503205043 57 236 7.0 16.0 0.00 0.00 0.00 46 1014.1
20260503204644 56 231 9.0 18.0 0.00 0.00 0.00 47 1014.2
20260503204043 57 255 8.0 18.0 0.00 0.00 0.00 45 1014.2
20260503203541 57 245 6.0 16.0 0.00 0.00 0.00 44 1014.2
20260503203059 57 265 5.0 18.0 0.00 0.00 0.00 47 1014.1
20260503202539 57 250 8.0 18.0 0.00 0.00 0.00 44 1014.2
20260503202041 57 267 8.0 18.0 0.00 0.00 0.00 44 1014.3
20260503201538 57 290 9.0 18.0 0.00 0.00 0.00 45 1014.4
20260503201038 56 232 10.0 16.0 0.00 0.00 0.00 43 1014.5
20260503200536 57 294 11.0 21.0 0.00 0.00 0.00 44 1014.6
20260503200036 57 273 9.0 21.0 0.00 0.00 0.00 42 1014.7
20260503195535 57 228 8.0 18.0 0.00 0.00 0.00 46 1014.8
20260503195034 56 227 6.0 17.0 0.00 0.00 0.00 46 1014.9
20260503194541 57 269 8.0 17.0 0.00 0.00 0.00 44 1014.9
20260503194033 57 227 6.0 17.0 0.00 0.00 0.00 46 1015.1
20260503193533 57 232 10.0 17.0 0.00 0.00 0.00 44 1015.2
20260503193037 57 267 8.0 17.0 0.00 0.00 0.00 43 1015.2
20260503192531 57 257 6.0 23.0 0.00 0.00 0.00 44 1015.3
20260503192030 57 229 11.0 23.0 0.00 0.00 0.00 44 1015.4
20260503191531 56 261 10.0 19.0 0.00 0.00 0.00 43 1015.5
20260503191029 56 240 12.0 19.0 0.00 0.00 0.00 43 1015.5
20260503190530 56 262 8.0 20.0 0.00 0.00 0.00 44 1015.7
20260503190036 56 265 10.0 20.0 0.00 0.00 0.00 44 1015.7
20260503185529 57 261 9.0 24.0 0.00 0.00 0.00 44 1015.8
20260503185027 57 281 8.0 25.0 0.00 0.00 0.00 45 1015.8
20260503184526 56 284 10.0 19.0 0.00 0.00 0.00 42 1016.0
20260503184023 57 275 9.0 17.0 0.00 0.00 0.00 42 1016.0
20260503183527 56 302 7.0 17.0 0.00 0.00 0.00 45 1016.1
20260503183022 56 240 10.0 18.0 0.00 0.00 0.00 41 1016.0
20260503182521 56 283 11.0 18.0 0.00 0.00 0.00 42 1016.2
20260503182021 56 226 7.0 20.0 0.00 0.00 0.00 45 1016.2
20260503181521 56 227 6.0 19.0 0.00 0.00 0.00 46 1016.3
20260503181020 56 269 12.0 18.0 0.00 0.00 0.00 44 1016.2
20260503180519 56 273 6.0 17.0 0.00 0.00 0.00 45 1016.3
20260503180020 55 252 8.0 17.0 0.00 0.00 0.00 46 1016.4
20260503175518 55 259 5.0 15.0 0.00 0.00 0.00 49 1016.5
20260503175017 55 224 6.0 17.0 0.00 0.00 0.00 47 1016.6
20260503174517 55 269 7.0 17.0 0.00 0.00 0.00 45 1016.5
20260503174016 56 291 7.0 15.0 0.00 0.00 0.00 46 1016.6
20260503173515 56 267 4.0 16.0 0.00 0.00 0.00 50 1016.6
20260503173014 55 237 9.0 19.0 0.00 0.00 0.00 46 1016.7
20260503172514 55 247 9.0 19.0 0.00 0.00 0.00 49 1016.7
20260503172012 55 237 10.0 19.0 0.00 0.00 0.00 48 1016.8
20260503171510 55 281 8.0 17.0 0.00 0.00 0.00 50 1017.0
20260503171011 55 257 6.0 15.0 0.00 0.00 0.00 47 1016.9
20260503170508 54 214 7.0 16.0 0.00 0.00 0.00 51 1017.0
20260503150540 48 202 9.0 18.0 0.00 0.00 0.00 56 1018.3
20260503131010 41 294 5.0 11.0 0.00 0.00 0.00 73 1018.7
20260503130513 40 262 6.0 11.0 0.00 0.00 0.00 74 1018.7
20260503110533 32 234 3.0 5.0 0.00 0.00 0.00 92 1017.8
20260503081527 34 244 1.0 2.0 0.00 0.00 0.00 90 1017.3
20260503081015 34 260 1.0 3.0 0.00 0.00 0.00 90 1017.3
20260503080515 34 260 1.0 3.0 0.00 0.00 0.00 90 1017.3
20260503072512 35 260 1.0 4.0 0.00 0.00 0.00 88 1017.2
20260503072010 35 261 1.0 4.0 0.00 0.00 0.00 88 1017.2
20260503071509 35 259 2.0 4.0 0.00 0.00 0.00 88 1017.2
20260503071008 35 264 1.0 4.0 0.00 0.00 0.00 87 1017.2
20260503070507 36 257 2.0 6.0 0.00 0.00 0.00 87 1017.2
20260503060118 37 270 2.0 5.0 0.00 0.00 0.00 87 1017.3
20260503055101 37 281 1.0 3.0 0.00 0.00 0.00 87 1017.3
20260503054620 37 252 0.0 3.0 0.00 0.00 0.00 88 1017.3
20260503054059 37 252 1.0 7.0 0.00 0.00 0.00 88 1017.3
20260503053559 37 252 2.0 7.0 0.00 0.00 0.00 88 1017.3
20260503053057 37 263 3.0 5.0 0.00 0.00 0.00 87 1017.4
20260503052557 37 257 2.0 3.0 0.00 0.00 0.00 87 1017.4
20260503052055 37 258 1.0 3.0 0.00 0.00 0.00 87 1017.5
20260503051555 37 237 2.0 4.0 0.00 0.00 0.00 87 1017.4
20260503051054 37 249 2.0 4.0 0.00 0.00 0.00 87 1017.5
20260503050557 37 271 1.0 4.0 0.00 0.00 0.00 87 1017.6
20260503050053 37 268 1.0 3.0 0.00 0.00 0.00 87 1017.5
20260503045558 37 268 1.0 3.0 0.00 0.00 0.00 87 1017.6
20260503045054 37 268 1.0 3.0 0.00 0.00 0.00 87 1017.6
20260503044554 37 268 1.0 3.0 0.00 0.00 0.00 87 1017.6
20260503044052 37 268 1.0 3.0 0.00 0.00 0.00 87 1017.6
20260503043551 37 268 1.0 3.0 0.00 0.00 0.00 87 1017.6
20260503043051 37 268 1.0 3.0 0.00 0.00 0.00 87 1017.6
20260503042551 37 268 1.0 3.0 0.00 0.00 0.00 87 1017.7
20260503042050 37 268 1.0 5.0 0.00 0.00 0.00 87 1017.7
20260503041550 37 263 1.0 5.0 0.00 0.00 0.00 87 1017.7
20260503041052 37 244 2.0 4.0 0.00 0.00 0.00 87 1017.7
20260503040548 37 264 2.0 4.0 0.00 0.00 0.00 86 1017.7
20260503040048 37 268 2.0 3.0 0.00 0.00 0.00 86 1017.8
20260503035547 37 259 1.0 3.0 0.00 0.00 0.00 86 1017.8
20260503035049 38 259 1.0 6.0 0.00 0.00 0.00 86 1017.8
20260503034547 38 241 2.0 6.0 0.00 0.00 0.00 86 1017.8
20260503034047 38 269 1.0 3.0 0.00 0.00 0.00 86 1017.8
20260503033549 38 269 1.0 3.0 0.00 0.00 0.00 87 1017.8
20260503033046 38 269 2.0 3.0 0.00 0.00 0.00 87 1017.8
20260503032546 38 269 1.0 3.0 0.00 0.00 0.00 87 1017.8
20260503032046 38 269 1.0 3.0 0.00 0.00 0.00 87 1017.7
20260503031547 38 269 1.0 3.0 0.00 0.00 0.00 88 1017.8
20260503031046 37 259 1.0 3.0 0.00 0.00 0.00 88 1017.8
20260503030544 38 259 1.0 3.0 0.00 0.00 0.00 88 1017.8
20260503030048 38 278 1.0 3.0 0.00 0.00 0.00 88 1017.9
20260503025544 38 278 1.0 3.0 0.00 0.00 0.00 88 1017.9
20260503025047 38 278 1.0 3.0 0.00 0.00 0.00 88 1017.9
20260503024544 38 278 1.0 3.0 0.00 0.00 0.00 88 1017.9
20260503024045 38 273 1.0 3.0 0.00 0.00 0.00 88 1017.9
20260503023544 38 273 1.0 3.0 0.00 0.00 0.00 89 1018.0
20260503023043 38 273 1.0 3.0 0.00 0.00 0.00 89 1018.0
20260503022543 38 275 1.0 3.0 0.00 0.00 0.00 89 1018.0
20260503022043 38 275 1.0 2.0 0.00 0.00 0.00 89 1018.0
20260503021543 38 275 0.0 3.0 0.00 0.00 0.00 89 1018.1
20260503021043 38 275 1.0 3.0 0.00 0.00 0.00 89 1018.1
20260503020542 38 276 0.0 3.0 0.00 0.00 0.00 89 1018.0
20260503020042 38 265 1.0 4.0 0.00 0.00 0.00 88 1018.0
20260503015542 38 260 1.0 4.0 0.00 0.00 0.00 88 1017.9
20260503015041 38 274 1.0 4.0 0.00 0.00 0.00 88 1017.9
20260503014541 38 274 1.0 4.0 0.00 0.00 0.00 88 1018.0
20260503014041 38 261 2.0 4.0 0.00 0.00 0.00 88 1017.9
20260503013541 38 257 2.0 4.0 0.00 0.00 0.00 88 1017.9
20260503013041 38 257 2.0 4.0 0.00 0.00 0.00 87 1017.9
20260503012541 38 252 2.0 4.0 0.00 0.00 0.00 87 1017.9
20260503012044 39 255 2.0 4.0 0.00 0.00 0.00 86 1017.8
20260503011542 39 265 1.0 4.0 0.00 0.00 0.00 86 1017.9